Location: Bonningues
(50.7927°N, 2.0150°E)
Time: 06:31:40
(UTC+00:00)

SPOT 5 - Pass Details

Date: 08 August 2020
Orbit: 624 x 814 km, 98.3° (Epoch: 23 September)

Event Time Altitude Azimuth Distance (km) Brightness Sun altitude
Exits shadow 22:15:04 21° 218° (SW) 1,430 4.2 -19.7°
Maximum altitude 22:17:10 31° 264° (W) 1,105 4.0 -19.9°
Drops below altitude 10° 22:21:04 10° 327° (NNW) 2,021 6.4 -20.1°
Sets 22:23:30 0° 338° (NNW) 2,949 7.7 -20.3°
